DW4509 Weather Reports


Display with metric or nautical units.
time (UTC)temp
F
wind
direction
speed
MPH
gust
MPH
rain 1hr
in
rain 24hr
in
rain mn
in
humidity
%
barometer
mb
20260905033912 58 160 1.0 12.0 0.00 0.08 0.00 78 1018.3
20260905032851 58 243 0.0 5.0 0.00 0.08 0.00 78 1018.1
20260905031908 58 244 0.0 4.0 0.00 0.08 0.00 78 1017.9
20260905030832 58 286 1.0 9.0 0.00 0.08 0.00 78 1018.0
20260905024648 58 262 0.0 5.0 0.00 0.08 0.00 79 1017.7
20260905023657 58 276 0.0 0.0 0.00 0.11 0.00 80 1017.7
20260905022622 58 295 0.0 7.0 0.00 0.13 0.00 80 1017.8
20260905021547 57 247 0.0 7.0 0.00 0.15 0.00 80 1017.7
20260905020522 57 285 0.0 3.0 0.00 0.17 0.00 81 1017.6
20260905015505 57 239 0.0 0.0 0.00 0.21 0.00 82 1017.5
20260905014445 57 267 0.0 4.0 0.00 0.24 0.00 83 1017.5
20260905013500 57 251 0.0 0.0 0.00 0.26 0.00 83 1017.3
20260905012445 57 257 0.0 0.0 0.00 0.28 0.00 83 1016.9
20260905011504 58 262 0.0 0.0 0.00 0.29 0.00 82 1016.8
20260905010434 58 138 0.0 4.0 0.00 0.31 0.00 82 1016.8
20260905005419 58 245 0.0 5.0 0.00 0.32 0.00 82 1016.7
20260905004407 58 305 0.0 5.0 0.00 0.33 0.00 82 1016.7
20260905003359 58 288 0.0 8.0 0.00 0.37 0.00 82 1016.6
20260905001257 58 275 0.0 1.0 0.00 0.37 0.00 84 1016.6
20260905000303 58 276 0.0 1.0 0.00 0.37 0.00 84 1016.6
20260904235319 58 222 0.0 0.0 0.00 0.37 0.00 84 1016.5
20260904234250 58 260 0.0 3.0 0.00 0.37 0.00 83 1016.3
20260904233223 58 257 0.0 2.0 0.00 0.37 0.00 83 1016.2
20260904232244 59 131 0.0 4.0 0.00 0.37 0.00 82 1016.4
20260904231209 59 32 0.0 2.0 0.00 0.37 0.00 81 1016.3
20260904230200 58 101 0.0 2.0 0.00 0.37 0.00 83 1016.2
20260904225140 58 281 0.0 0.0 0.00 0.37 0.37 83 1016.1
20260904224124 58 338 0.0 0.0 0.00 0.37 0.37 82 1016.0
20260904223124 59 348 0.0 0.0 0.00 0.37 0.37 82 1016.1
20260904222108 59 252 0.0 1.0 0.00 0.37 0.37 81 1016.1
20260904221045 59 323 0.0 0.0 0.00 0.37 0.37 80 1016.0
20260904220025 60 352 0.0 7.0 0.00 0.37 0.37 79 1016.1
20260904214956 60 278 0.0 4.0 0.00 0.37 0.37 78 1015.8
20260904212814 59 247 0.0 0.0 0.00 0.37 0.37 77 1015.7
20260904211755 60 8 0.0 0.0 0.00 0.37 0.37 76 1015.6
20260904210811 60 67 0.0 1.0 0.00 0.37 0.37 76 1015.8
20260904204651 60 67 0.0 0.0 0.00 0.37 0.37 75 1015.7
20260904203627 60 221 0.0 3.0 0.00 0.37 0.37 75 1015.6
20260904202602 60 45 0.0 0.0 0.00 0.37 0.37 75 1015.5
20260904201553 60 73 0.0 0.0 0.00 0.37 0.37 73 1015.4
20260904200558 60 255 0.0 0.0 0.00 0.37 0.37 72 1015.3
20260904195550 61 255 0.0 0.0 0.00 0.37 0.37 71 1015.2
20260904194545 61 57 0.0 1.0 0.00 0.37 0.37 71 1015.2
20260904193539 61 63 0.0 0.0 0.00 0.37 0.37 70 1015.1
20260904192554 61 73 0.0 0.0 0.00 0.37 0.37 69 1014.9
20260904191558 62 347 0.0 0.0 0.00 0.37 0.37 69 1014.8
20260904190547 62 272 0.0 3.0 0.00 0.37 0.37 67 1014.5
20260904184402 62 2 0.0 4.0 0.00 0.37 0.37 66 1014.0
20260904183352 62 238 0.0 4.0 0.00 0.37 0.37 66 1014.0
20260904182406 63 89 0.0 2.0 0.00 0.37 0.37 66 1014.1
20260904180310 63 245 1.0 8.0 0.00 0.37 0.37 63 1013.8
20260904174157 63 262 1.0 6.0 0.00 0.37 0.37 65 1013.7
20260904173149 64 259 1.0 8.0 0.00 0.37 0.37 65 1013.8
20260904172137 64 278 1.0 8.0 0.00 0.37 0.37 64 1013.8
20260904165945 64 250 1.0 7.0 0.00 0.37 0.37 64 1013.5
20260904164946 64 241 1.0 11.0 0.00 0.37 0.37 64 1013.3
20260904163910 65 258 2.0 11.0 0.00 0.37 0.37 63 1013.1
20260904162908 65 290 1.0 8.0 0.00 0.37 0.37 64 1013.1
20260904161920 65 285 2.0 14.0 0.00 0.37 0.37 64 1013.0
20260904155712 65 312 1.0 11.0 0.00 0.37 0.37 63 1012.7
20260904153532 65 278 1.0 6.0 0.00 0.37 0.37 63 1012.5
20260904145123 66 98 3.0 14.0 0.00 0.37 0.37 61 1011.6
20260904144053 66 321 4.0 13.0 0.00 0.37 0.37 59 1011.6
20260904143101 66 117 3.0 16.0 0.00 0.37 0.37 59 1011.6
20260904142040 66 275 5.0 16.0 0.00 0.37 0.37 61 1011.4
20260904141045 66 281 4.0 15.0 0.00 0.37 0.37 61 1011.4
20260904140050 66 128 2.0 14.0 0.00 0.37 0.37 63 1011.2
20260904135100 66 306 3.0 14.0 0.00 0.37 0.37 64 1011.1
20260904134047 65 253 2.0 10.0 0.00 0.37 0.37 64 1011.2
20260904130847 65 210 3.0 13.0 0.00 0.37 0.37 63 1011.0
20260904125816 65 107 3.0 13.0 0.00 0.37 0.37 64 1010.9
20260904123721 65 270 4.0 14.0 0.00 0.37 0.37 63 1010.8
20260904122709 64 228 4.0 12.0 0.00 0.37 0.37 65 1010.7
20260904121732 64 4 3.0 10.0 0.00 0.37 0.37 67 1010.5
20260904120704 64 293 2.0 7.0 0.00 0.37 0.37 69 1010.5
20260904115649 64 349 1.0 9.0 0.00 0.37 0.37 69 1010.4
20260904114714 64 230 2.0 9.0 0.00 0.37 0.37 70 1010.3
20260904113653 64 339 1.0 15.0 0.00 0.37 0.37 71 1010.1
20260904112621 63 296 2.0 15.0 0.00 0.37 0.37 70 1010.2
20260904110445 63 150 2.0 14.0 0.00 0.37 0.37 73 1010.1
20260904105427 62 245 2.0 11.0 0.00 0.37 0.37 75 1010.1
20260904104413 62 266 2.0 11.0 0.00 0.37 0.37 76 1010.0
20260904101112 61 293 1.0 13.0 0.00 0.37 0.37 79 1009.8
20260904100036 61 257 2.0 13.0 0.00 0.37 0.37 78 1009.5
20260904095046 61 290 2.0 8.0 0.00 0.37 0.37 79 1009.5
20260904094056 60 187 1.0 7.0 0.00 0.37 0.37 81 1009.3
20260904093033 60 233 1.0 6.0 0.00 0.37 0.37 82 1009.2
20260904090844 58 338 0.0 11.0 0.00 0.37 0.37 84 1008.9
20260904085810 58 278 1.0 11.0 0.00 0.37 0.37 83 1008.9
20260904083640 60 193 2.0 8.0 0.05 0.37 0.37 85 1008.8
20260904082700 61 258 1.0 8.0 0.40 0.35 0.36 84 1008.7
20260904080522 61 260 1.0 6.0 0.00 0.30 0.30 83 1007.8
20260904075543 61 233 1.0 6.0 0.00 0.30 0.30 84 1008.0
20260904074511 61 285 1.0 10.0 0.00 0.30 0.30 85 1007.9
20260904072306 60 359 1.0 8.0 0.00 0.30 0.30 86 1007.7
20260904071259 60 245 1.0 8.0 0.00 0.30 0.30 86 1007.6
20260904070300 60 258 1.0 9.0 0.00 0.30 0.30 88 1007.5
20260904065258 60 269 1.0 9.0 0.00 0.30 0.30 89 1007.3
20260904064229 60 297 1.0 7.0 0.00 0.30 0.30 89 1007.1
20260904063208 60 74 1.0 7.0 0.00 0.30 0.30 89 1007.3
20260904062152 60 200 1.0 5.0 0.00 0.30 0.30 89 1007.1
20260904061133 60 252 0.0 6.0 0.00 0.30 0.30 90 1007.1
20260904060133 60 285 0.0 6.0 0.00 0.30 0.30 90 1006.6
20260904053931 60 274 0.0 4.0 0.00 0.30 0.30 91 1006.8
20260904052903 60 270 0.0 3.0 0.00 0.30 0.30 91 1006.8
20260904051844 60 156 0.0 0.0 0.00 0.30 0.30 91 1006.3
20260904050841 60 314 0.0 0.0 0.00 0.29 0.30 91 1006.2
20260904045817 60 103 0.0 0.0 0.00 0.29 0.29 91 1006.3
20260904044812 60 269 0.0 0.0 0.00 0.29 0.29 91 1006.6
20260904043821 60 85 0.0 0.0 0.00 0.29 0.29 91 1006.3
20260904042748 60 85 0.0 0.0 0.00 0.29 0.29 91 1006.2
20260904041813 60 303 0.0 1.0 0.00 0.29 0.29 90 1006.4
20260904040747 60 299 0.0 0.0 0.00 0.29 0.29 90 1006.4
20260904035732 60 165 0.0 1.0 0.00 0.29 0.29 90 1006.8
20260904034716 60 84 0.0 0.0 0.00 0.29 0.29 90 1006.4